Showing default

BEIDOU 3M9, 43581

Orbit data source: Space-Track

BEIDOU 3M9, 43581 is a payload satellite owned by CNSA (CN) in MEO that was launched on Sun, 29 Jul 2018 UTC via a CHANG ZHENG 3B/YZ-1 launch vehicle from the Xichang Space Center, China (XSC). Payload-class satellites include a variety of spacecraft equipped with specific instruments for various scientific and technological missions. These include communications satellites like Starlink; space stations such as the ISS; scientific satellites like the Hubble; Earth observation satellites from companies like Planet Labs, Umbra, and HawkEye 360; GPS; miniature CubeSats for education and research; and military/defense satellites.

Loading next visibility...
Identifier
43581, 2018-062A
Orbit
MEO
Country
Flag of CNCN / PRC
Related business
Manufacturer
CAST
Mission
Operational Defense Navigation
Bus & Motor
BD-3M, Unknown motor
Mass
1,014 kg wet, ~850 kg dry
Launch date (UTC)
2018-07-29 (7 years ago)
Launch vehicle
CHANG ZHENG 3B/YZ-1
Launch site
Xichang Space Center, China (XSC)
Object type
Payload
Rocket body
Debris
Shape & HBR
Box + 2 Pan, 5.0 m
Radar Cross Section
8.984 m², Large (>1 m²)

Expand to show TLE details & history
Last TLE update: 1 week ago

TLE from 1 week ago
0 BEIDOU 3M9
1 43581U 18062A   25280.20091477  .00000030  00000-0  00000-0 0  9998
2 43581  54.0922 190.9072 0003399 310.1276  49.8853  1.86228524 48925
Epoch: 2025-10-07T04:49Z
TLE epoch observation values (Epoch: 2025-10-07T04:49:19.036Z)
Latitude
0.00001°
Longitude
102.48211°
Altitude
21,522.437 km
Speed
3.78 km/s
True Right ascension
12h 43m 37s
True Declination
0° 00' 00"
Sunlit
Object was in daylight at epoch
Visualization orbit readout
Latitude
Unknown
Longitude
Unknown
Altitude
Unknown
Speed
Unknown
Apparent Right ascension
Unknown
Apparent Declination
Unknown
Sunlit
N/A
Visualization observer readout
Local Sidereal Time
16:04:37
Azimuth
Unknown
Elevation
Unknown
Doppler factor
Unknown
Orbital elements
Apogee altitude
21,537.827 km
Perigee altitude
21,518.856 km
Semi-major axis
27,906.478 km
Eccentricity
0.00034
Inclination
54.0922°
RAAN
190.9072°
Arg. of periapsis
310.1276°
True anomaly
49.9151°
Mean anomaly
49.8853°
Eccentric anomaly
49.9002°
Mean motion
0.46557 °/min
Orbital period
773.24 mins
BSTAR
0
Loading maneuver chart data...
Computing Atmospheric mass density...
Loading historical data...
Loading historical data...
Loading historical data...
Loading historical data...
Loading historical data...
Loading historical data...
Loading historical data...
Other satellites on launch #62 in the year 2018 (2018-07-29 UTC)

Documentation

Showing up to 5 results
|